TimeEST,TemperatureF,Dew PointF,Humidity,Sea Level PressureIn,VisibilityMPH,Wind Direction,Wind SpeedMPH,Gust SpeedMPH,PrecipitationIn,Events,Conditions,WindDirDegrees,DateUTC
12:15 AM,16.2,12.2,84,30.16,7.0,ENE,3.5,-,N/A,Snow,Light Snow,60,2014-03-04 05:15:00
12:35 AM,15.3,11.7,86,30.15,10.0,ENE,3.5,-,N/A,Snow,Light Snow,60,2014-03-04 05:35:00
12:55 AM,14.5,11.1,86,30.15,10.0,Calm,Calm,-,N/A,,Scattered Clouds,0,2014-03-04 05:55:00
1:15 AM,14.4,11.1,87,30.14,10.0,NNE,3.5,-,N/A,,Clear,30,2014-03-04 06:15:00
1:35 AM,14.2,10.9,87,30.14,10.0,Calm,Calm,-,N/A,,Clear,0,2014-03-04 06:35:00
2:00 AM,14.0,10.8,87,30.13,10.0,Calm,Calm,-,N/A,,Clear,0,2014-03-04 07:00:00
2:15 AM,13.8,10.6,87,30.12,10.0,NE,3.5,-,N/A,,Clear,50,2014-03-04 07:15:00
2:35 AM,13.6,10.2,86,30.12,10.0,NNE,3.5,-,N/A,,Clear,20,2014-03-04 07:35:00
2:55 AM,13.6,10.2,86,30.12,10.0,North,3.5,-,N/A,,Clear,10,2014-03-04 07:55:00
3:15 AM,13.5,10.2,87,30.11,10.0,Calm,Calm,-,N/A,,Clear,0,2014-03-04 08:15:00
3:35 AM,13.3,9.7,86,30.11,10.0,Calm,Calm,-,N/A,,Clear,0,2014-03-04 08:35:00
3:55 AM,14.2,10.4,85,30.09,10.0,NE,5.8,-,N/A,,Clear,40,2014-03-04 08:55:00
4:15 AM,14.9,10.2,82,30.08,10.0,NE,3.5,-,N/A,,Clear,40,2014-03-04 09:15:00
4:35 AM,15.6,10.9,82,30.09,10.0,NE,8.1,-,N/A,,Clear,40,2014-03-04 09:35:00
4:55 AM,15.6,10.4,80,30.09,10.0,Calm,Calm,-,N/A,,Clear,0,2014-03-04 09:55:00
5:15 AM,15.4,10.2,80,30.10,10.0,NE,4.6,-,N/A,,Clear,50,2014-03-04 10:15:00
5:40 AM,16.2,10.2,77,30.10,10.0,NNE,3.5,-,N/A,,Clear,30,2014-03-04 10:40:00
5:55 AM,16.7,9.5,73,30.11,10.0,NE,5.8,-,N/A,,Clear,40,2014-03-04 10:55:00
6:15 AM,17.1,9.1,71,30.11,10.0,NE,3.5,-,N/A,,Clear,50,2014-03-04 11:15:00
6:35 AM,16.5,8.8,72,30.11,10.0,NNE,3.5,-,N/A,,Clear,20,2014-03-04 11:35:00
6:55 AM,15.4,9.3,77,30.12,10.0,NNE,3.5,-,N/A,,Clear,20,2014-03-04 11:55:00
7:15 AM,15.6,9.1,76,30.12,10.0,Calm,Calm,-,N/A,,Clear,0,2014-03-04 12:15:00
7:35 AM,17.2,8.2,68,30.13,10.0,Calm,Calm,-,N/A,,Clear,0,2014-03-04 12:35:00
7:55 AM,14.7,10.4,83,30.13,10.0,Calm,Calm,-,N/A,,Clear,0,2014-03-04 12:55:00
8:15 AM,18.5,8.8,66,30.13,10.0,Calm,Calm,-,N/A,,Clear,0,2014-03-04 13:15:00
8:35 AM,20.8,12.6,70,30.12,10.0,Calm,Calm,-,N/A,,Clear,0,2014-03-04 13:35:00
8:55 AM,18.7,13.8,81,30.12,10.0,Calm,Calm,-,N/A,,Clear,0,2014-03-04 13:55:00
9:20 AM,22.1,13.1,68,30.12,10.0,Calm,Calm,-,N/A,,Clear,0,2014-03-04 14:20:00
9:35 AM,23.2,14.9,71,30.12,10.0,Calm,Calm,-,N/A,,Clear,0,2014-03-04 14:35:00
9:55 AM,28.4,15.1,57,30.12,10.0,Calm,Calm,-,N/A,,Clear,0,2014-03-04 14:55:00
10:15 AM,27.5,19.0,71,30.13,10.0,ESE,3.5,-,N/A,Snow,Light Snow,120,2014-03-04 15:15:00
10:35 AM,30.6,17.4,58,30.13,10.0,SE,3.5,-,N/A,,Clear,130,2014-03-04 15:35:00
10:55 AM,31.1,19.2,61,30.12,10.0,SE,5.8,-,N/A,,Clear,130,2014-03-04 15:55:00
11:15 AM,31.6,14.4,49,30.14,10.0,Calm,Calm,-,N/A,,Clear,0,2014-03-04 16:15:00
11:35 AM,32.4,18.7,57,30.13,10.0,Calm,Calm,-,N/A,,Clear,0,2014-03-04 16:35:00
11:55 AM,32.5,17.6,54,30.14,10.0,Calm,Calm,-,N/A,,Clear,0,2014-03-04 16:55:00
12:15 PM,32.9,17.1,52,30.13,10.0,Calm,Calm,-,N/A,,Clear,0,2014-03-04 17:15:00
12:35 PM,33.3,20.1,59,30.13,10.0,Calm,Calm,-,N/A,,Clear,0,2014-03-04 17:35:00
1:00 PM,33.8,20.3,58,30.12,10.0,Calm,Calm,-,N/A,,Clear,0,2014-03-04 18:00:00
1:15 PM,34.7,19.6,54,30.12,10.0,Calm,Calm,-,N/A,,Clear,0,2014-03-04 18:15:00
1:35 PM,35.8,20.3,53,30.11,10.0,Calm,Calm,-,N/A,,Clear,0,2014-03-04 18:35:00
1:55 PM,36.1,19.2,50,30.10,10.0,Calm,Calm,-,N/A,,Clear,0,2014-03-04 18:55:00
2:15 PM,37.0,21.6,54,30.09,10.0,Calm,Calm,-,N/A,,Clear,0,2014-03-04 19:15:00
2:35 PM,37.6,21.4,52,30.08,10.0,Calm,Calm,-,N/A,,Clear,0,2014-03-04 19:35:00
2:55 PM,38.8,23.7,55,30.08,10.0,Calm,Calm,-,N/A,,Clear,0,2014-03-04 19:55:00
3:15 PM,38.3,23.0,54,30.07,10.0,Calm,Calm,-,N/A,,Clear,0,2014-03-04 20:15:00
3:35 PM,39.0,26.1,60,30.07,10.0,WSW,3.5,-,N/A,,Clear,250,2014-03-04 20:35:00
3:55 PM,39.2,26.1,59,30.07,10.0,WNW,3.5,-,N/A,,Clear,290,2014-03-04 20:55:00
4:15 PM,39.2,25.9,59,30.07,10.0,West,3.5,-,N/A,,Clear,260,2014-03-04 21:15:00
4:40 PM,39.2,26.6,61,30.07,10.0,West,4.6,-,N/A,,Clear,280,2014-03-04 21:40:00
4:55 PM,39.2,27.7,63,30.07,10.0,West,4.6,-,N/A,,Clear,260,2014-03-04 21:55:00
5:15 PM,38.8,28.4,66,30.08,10.0,WSW,3.5,-,N/A,,Clear,250,2014-03-04 22:15:00
5:35 PM,38.3,28.9,69,30.07,10.0,West,3.5,-,N/A,,Clear,280,2014-03-04 22:35:00
5:55 PM,38.1,29.7,72,30.08,10.0,West,4.6,-,N/A,,Clear,270,2014-03-04 22:55:00
6:15 PM,37.4,31.1,78,30.10,10.0,West,4.6,-,N/A,,Scattered Clouds,270,2014-03-04 23:15:00
6:35 PM,37.6,31.8,80,30.10,10.0,WSW,5.8,-,N/A,,Mostly Cloudy,250,2014-03-04 23:35:00
6:55 PM,37.6,32.0,80,30.11,10.0,WSW,4.6,-,N/A,,Overcast,240,2014-03-04 23:55:00
7:15 PM,37.2,32.0,81,30.11,10.0,West,3.5,-,N/A,,Overcast,280,2014-03-05 00:15:00
7:35 PM,36.7,32.0,83,30.11,10.0,Calm,Calm,-,N/A,,Mostly Cloudy,0,2014-03-05 00:35:00
7:55 PM,36.5,31.8,83,30.11,10.0,Calm,Calm,-,N/A,,Clear,0,2014-03-05 00:55:00
8:20 PM,36.0,32.0,86,30.11,10.0,Calm,Calm,-,N/A,,Clear,0,2014-03-05 01:20:00
8:35 PM,35.6,32.0,87,30.11,10.0,Calm,Calm,-,N/A,,Clear,0,2014-03-05 01:35:00
8:55 PM,35.6,32.0,87,30.12,10.0,Calm,Calm,-,N/A,,Mostly Cloudy,0,2014-03-05 01:55:00
9:15 PM,35.4,31.8,87,30.12,10.0,Calm,Calm,-,N/A,,Overcast,0,2014-03-05 02:15:00
9:35 PM,35.2,31.5,86,30.12,10.0,Calm,Calm,-,N/A,,Scattered Clouds,0,2014-03-05 02:35:00
9:55 PM,34.7,31.6,89,30.11,10.0,Calm,Calm,-,N/A,,Clear,0,2014-03-05 02:55:00
10:15 PM,35.1,31.5,87,30.11,10.0,Calm,Calm,-,N/A,,Clear,0,2014-03-05 03:15:00
10:35 PM,35.1,31.1,85,30.11,10.0,Calm,Calm,-,N/A,,Clear,0,2014-03-05 03:35:00
10:55 PM,35.6,30.9,83,30.11,10.0,Calm,Calm,-,N/A,,Clear,0,2014-03-05 03:55:00
11:15 PM,35.2,30.2,82,30.10,10.0,Calm,Calm,-,N/A,,Clear,0,2014-03-05 04:15:00
11:35 PM,34.7,30.9,86,30.10,10.0,Calm,Calm,-,N/A,,Clear,0,2014-03-05 04:35:00